This is the latest recevied weather packets stored in our database for station/object W2SBL-1. If no packets are shown the sender has not sent any weather packets the latest 10 day(s).
| Time | Temp. | Humidity | Pressure | Rain* | Wind** | Luminosity | Snow |
|---|---|---|---|---|---|---|---|
| 1787979469 | 25° C | 58% | 1018.4 hPa | - | - | - | - |
| 1787978569 | 25° C | 58% | 1026 hPa | - | - | - | - |
| 1787977669 | 25° C | 58% | 1024 hPa | - | - | - | - |
| 1787976769 | 25° C | 58% | 1017.8 hPa | - | - | - | - |
| 1787975869 | 25° C | 58% | 1017.6 hPa | - | - | - | - |
| 1787974969 | 25° C | 58% | 1017.3 hPa | - | - | - | - |
| 1787974069 | 25° C | 58% | 1017.2 hPa | - | - | - | - |
| 1787973169 | 25.56° C | 58% | 1017.1 hPa | - | - | - | - |
| 1787972269 | 25.56° C | 58% | 1016.9 hPa | - | - | - | - |
| 1787971369 | 25.56° C | 58% | 1016.8 hPa | - | - | - | - |
| 1787970469 | 25.56° C | 58% | 1016.7 hPa | - | - | - | - |
| 1787969568 | 26.11° C | 58% | 1023.8 hPa | - | - | - | - |
| 1787968668 | 26.11° C | 58% | 1016.5 hPa | - | - | - | - |
| 1787967768 | 26.11° C | 58% | 1016.4 hPa | - | - | - | - |
| 1787966868 | 26.67° C | 58% | 1016.4 hPa | - | - | - | - |
| 1787965968 | 26.67° C | 58% | 1016.2 hPa | - | - | - | - |
| 1787965068 | 26.67° C | 58% | 1016.1 hPa | - | - | - | - |
| 1787964168 | 27.22° C | 58% | 1015.9 hPa | - | - | - | - |
| 1787963268 | 27.22° C | 58% | 1015.8 hPa | - | - | - | - |
| 1787962368 | 27.22° C | 58% | 1015.7 hPa | - | - | - | - |
| 1787961468 | 27.78° C | 58% | 1015.6 hPa | - | - | - | - |
| 1787960568 | 27.78° C | 58% | 1015.5 hPa | - | - | - | - |
| 1787949767 | 32.22° C | 55% | 1014.8 hPa | - | - | - | - |
| 1787947966 | 32.22° C | 55% | 1015 hPa | - | - | - | - |
| 1787947066 | 32.78° C | 54% | 1015 hPa | - | - | - | - |
* Rain since midnight (hover to see other rain measurements)
** Current wind speed in m/s (hover to see current wind gust speed)